Weather History for KIMT - May, 2013

Change the Weather History Date:

Wednesday, May 22, 2013

  Actual Average Record
Temperature  
Mean Temperature 52 °F -  
Max Temperature 59 °F 72 °F 92 °F (1964)
Min Temperature 44 °F 42 °F 22 °F (1947)
Degree Days  
Heating Degree Days 13    
Growing Degree Days 2 (Base 50)    
Moisture  
Dew Point 50 °F    
Average Humidity 92    
Maximum Humidity 100    
Minimum Humidity 77    
Precipitation  
Precipitation 0.02 in - - ()
Sea Level Pressure  
Sea Level Pressure 29.77 in    
Wind  
Wind Speed 7 mph (North)    
Max Wind Speed 18 mph    
Max Gust Speed 28 mph    
Visibility 6 miles    
Events Fog , Rain    
Averages and records for this station are not official NWS values.
T = Trace of Precipitation, MM = Missing Value Source: NWS Daily Summary

Daily Weather History Graph

Daily Weather History Graph

Search for Another Location

Airport or City:

Trip Planner

Search our weather history database for the weather conditions in past years. The results will help you decide how hot, cold, wet, or windy it might be!

Date:

Astronomy

May. 22, 2013 Rise Set
Actual Time 5:13 AM CDT 8:25 PM CDT
Civil Twilight 4:37 AM CDT 9:01 PM CDT
Nautical Twilight 3:50 AM CDT 9:48 PM CDT
Astronomical Twilight 2:53 AM CDT 10:46 PM CDT
Moon 5:40 PM CDT (5/22) 3:26 AM CDT (5/22)
Length of Visible Light 16h 24m
Length of Day
15h 12m
Waxing Gibbous, 91% of the Moon is Illuminated
May 22
Waxing Gibbous
May 24
Full
May 31
Last Quarter
Jun 8
New
Jun 16
First Quarter

Hourly Weather History & Observations

Time (CDT) Temp. Windchill Dew Point Humidity Pressure Visibility Wind Dir Wind Speed Gust Speed Precip Events Conditions
12:54 AM 60.1 °F - 57.9 °F 93% 29.68 in 7.0 mi NNE 3.5 mph - N/A   Overcast
1:20 AM 59.0 °F - 57.2 °F 94% 29.68 in 6.0 mi Calm Calm - N/A   Overcast
1:54 AM 59.0 °F - 57.9 °F 96% 29.69 in 4.0 mi Calm Calm - N/A   Overcast
2:31 AM 57.2 °F - 57.2 °F 100% 29.68 in 1.8 mi North 8.1 mph - N/A   Overcast
2:49 AM 57.2 °F - 57.2 °F 100% 29.69 in 0.8 mi North 4.6 mph - N/A   Overcast
2:54 AM 57.9 °F - 57.0 °F 97% 29.69 in 1.0 mi Variable 5.8 mph - N/A   Overcast
3:03 AM 57.2 °F - 57.2 °F 100% 29.69 in 3.0 mi Calm Calm - N/A   Overcast
3:33 AM 57.2 °F - 55.4 °F 94% 29.70 in 2.5 mi Calm Calm - N/A   Overcast
3:54 AM 57.0 °F - 55.9 °F 96% 29.70 in 1.5 mi NNE 6.9 mph - N/A   Overcast
4:10 AM 55.4 °F - 55.4 °F 100% 29.70 in 2.0 mi NNE 5.8 mph - N/A   Overcast
4:17 AM 55.4 °F - 55.4 °F 100% 29.70 in 1.5 mi NNE 6.9 mph - N/A   Overcast
4:45 AM 55.4 °F - 55.4 °F 100% 29.71 in 0.8 mi NNE 4.6 mph - N/A   Mist
4:54 AM 53.1 °F - 53.1 °F 100% 29.72 in 2.5 mi NW 6.9 mph - N/A   Overcast
5:01 AM 53.6 °F - 53.6 °F 100% 29.71 in 4.0 mi NW 4.6 mph - N/A   Overcast
5:18 AM 53.6 °F - 51.8 °F 94% 29.71 in 2.0 mi NNW 6.9 mph - N/A   Overcast
5:25 AM 51.8 °F - 51.8 °F 100% 29.71 in 1.2 mi NNW 6.9 mph - N/A   Overcast
5:44 AM 51.8 °F - 51.8 °F 100% 29.72 in 0.5 mi NNW 5.8 mph - N/A Fog Fog
5:54 AM 52.0 °F - 51.1 °F 97% 29.73 in 0.5 mi NW 5.8 mph - N/A Fog Fog
6:15 AM 51.8 °F - 51.8 °F 100% 29.73 in 1.0 mi NW 4.6 mph - N/A   Overcast
6:27 AM 51.8 °F - 51.8 °F 100% 29.72 in 0.5 mi North 4.6 mph - N/A Fog Fog
6:54 AM 53.1 °F - 52.0 °F 96% 29.73 in 0.5 mi North 6.9 mph - N/A Fog Fog
7:20 AM 53.6 °F - 51.8 °F 94% 29.72 in 2.0 mi North 6.9 mph - N/A   Overcast
7:28 AM 53.6 °F - 51.8 °F 94% 29.72 in 7.0 mi North 4.6 mph - N/A   Overcast
7:36 AM 53.6 °F - 51.8 °F 94% 29.72 in 1.8 mi North 6.9 mph - N/A   Overcast
7:54 AM 53.1 °F - 52.0 °F 96% 29.74 in 1.8 mi North 8.1 mph - N/A   Overcast
7:57 AM 53.6 °F - 51.8 °F 94% 29.73 in 3.0 mi North 9.2 mph - N/A   Overcast
8:10 AM 53.6 °F - 51.8 °F 94% 29.73 in 10.0 mi North 10.4 mph - N/A   Overcast
8:54 AM 53.1 °F - 51.1 °F 93% 29.73 in 10.0 mi North 9.2 mph - N/A   Overcast
9:12 AM 53.6 °F - 51.8 °F 94% 29.72 in 10.0 mi North 10.4 mph - N/A   Overcast
9:54 AM 54.0 °F - 51.1 °F 90% 29.73 in 10.0 mi NNE 9.2 mph - N/A   Overcast
10:54 AM 54.0 °F - 51.1 °F 90% 29.74 in 10.0 mi North 4.6 mph - N/A   Overcast
11:54 AM 54.0 °F - 51.1 °F 90% 29.76 in 10.0 mi NNE 8.1 mph - N/A   Overcast
12:54 PM 54.0 °F - 51.1 °F 90% 29.76 in 9.0 mi North 11.5 mph - N/A   Overcast
1:37 PM 53.6 °F - 48.2 °F 82% 29.75 in 10.0 mi NNE 12.7 mph - N/A   Overcast
1:54 PM 54.0 °F - 48.0 °F 80% 29.75 in 10.0 mi NNE 9.2 mph 20.7 mph N/A   Overcast
2:02 PM 53.6 °F - 48.2 °F 82% 29.74 in 10.0 mi NNE 11.5 mph - N/A   Overcast
2:54 PM 53.1 °F - 46.0 °F 77% 29.78 in 10.0 mi North 10.4 mph - N/A   Overcast
3:54 PM 52.0 °F - 46.0 °F 80% 29.78 in 10.0 mi North 11.5 mph - N/A   Overcast
4:49 PM 51.8 °F - 46.4 °F 82% 29.79 in 10.0 mi North 11.5 mph - 0.00 in   Overcast
4:54 PM 52.0 °F - 46.0 °F 80% 29.81 in 10.0 mi North 13.8 mph 17.3 mph 0.00 in   Overcast
5:54 PM 52.0 °F - 46.0 °F 80% 29.81 in 10.0 mi North 9.2 mph - N/A   Overcast
6:38 PM 51.8 °F - 46.4 °F 82% 29.81 in 10.0 mi North 13.8 mph - N/A   Overcast
6:54 PM 51.1 °F - 46.0 °F 83% 29.83 in 10.0 mi North 10.4 mph - N/A   Overcast
7:54 PM 50.0 °F - 48.0 °F 93% 29.84 in 10.0 mi North 13.8 mph - 0.00 in Rain Light Rain
8:54 PM 51.1 °F - 46.9 °F 86% 29.86 in 10.0 mi NNE 16.1 mph 26.5 mph 0.00 in Rain Light Rain
9:07 PM 51.8 °F - 46.4 °F 82% 29.85 in 10.0 mi North 10.4 mph 21.9 mph 0.00 in Rain Light Rain
9:39 PM 50.0 °F - 48.2 °F 94% 29.86 in 10.0 mi North 9.2 mph - 0.00 in Rain Light Rain
9:54 PM 50.0 °F - 46.9 °F 89% 29.89 in 9.0 mi North 16.1 mph 21.9 mph 0.00 in Rain Light Rain
10:13 PM 50.0 °F - 46.4 °F 87% 29.88 in 8.0 mi North 12.7 mph 19.6 mph 0.00 in Rain Light Rain
10:38 PM 48.2 °F - 46.4 °F 93% 29.89 in 9.0 mi North 18.4 mph 25.3 mph 0.00 in Rain Light Rain
10:52 PM 46.4 °F 39.2 °F 42.8 °F 87% 29.90 in 7.0 mi North 18.4 mph 27.6 mph 0.01 in Rain Light Rain
10:54 PM 46.9 °F - 43.0 °F 86% 29.92 in 7.0 mi North 16.1 mph 27.6 mph 0.01 in Rain Light Rain
11:12 PM 46.4 °F 40.1 °F 42.8 °F 87% 29.91 in 6.0 mi North 15.0 mph 24.2 mph 0.01 in Rain Light Rain
11:26 PM 44.6 °F 37.2 °F 42.8 °F 93% 29.91 in 9.0 mi North 17.3 mph 25.3 mph 0.01 in Rain Light Rain
11:54 PM 44.1 °F 37.4 °F 41.0 °F 89% 29.94 in 10.0 mi North 13.8 mph 25.3 mph 0.01 in Rain Light Rain